Location: Unspecified
(0.0000°N, 0.0000°E)
Time: 06:30:24
(UTC+00:00)

Courier 1B - Pass Details

Date: 22 November 2019
Orbit: 963 x 1209 km, 28.3° (Epoch: 11 December)

Event Time Altitude Azimuth Distance (km) Brightness Sun altitude
Rises 03:22:33 0° 278° (W) 4,038 - -33.4°
Reaches altitude 10° 03:26:39 10° 297° (WNW) 3,032 - -32.4°
Maximum altitude 03:31:10 17° 335° (NNW) 2,500 - -31.4°
Drops below altitude 10° 03:35:32 10° 13° (NNE) 2,917 - -30.4°
Exits shadow 03:35:44 10° 14° (NNE) 2,955 9.9 -30.4°
Sets 03:39:23 0° 33° (NNE) 3,819 10.7 -29.5°
